TimeEDT,TemperatureF,Dew PointF,Humidity,Sea Level PressureIn,VisibilityMPH,Wind Direction,Wind SpeedMPH,Gust SpeedMPH,PrecipitationIn,Events,Conditions,WindDirDegrees,DateUTC
12:53 AM,44.1,39.0,82,29.93,10.0,SW,5.8,-,N/A,,Clear,220,2012-10-21 04:53:00
1:53 AM,42.1,39.0,89,29.95,8.0,SW,5.8,-,N/A,,Clear,220,2012-10-21 05:53:00
2:53 AM,43.0,39.0,86,29.98,7.0,SW,6.9,-,N/A,,Clear,220,2012-10-21 06:53:00
3:53 AM,41.0,37.9,89,29.99,5.0,WSW,5.8,-,N/A,,Clear,240,2012-10-21 07:53:00
4:25 AM,39.2,35.6,87,30.00,2.0,WSW,4.6,-,N/A,,Clear,250,2012-10-21 08:25:00
4:34 AM,39.2,35.6,87,30.00,5.0,WSW,4.6,-,N/A,,Clear,250,2012-10-21 08:34:00
4:53 AM,42.1,37.9,85,30.01,6.0,West,4.6,-,N/A,,Clear,260,2012-10-21 08:53:00
5:53 AM,39.9,37.0,89,30.03,2.0,Calm,Calm,-,N/A,,Clear,0,2012-10-21 09:53:00
6:00 AM,39.2,35.6,87,30.03,1.5,Calm,Calm,-,N/A,,Clear,0,2012-10-21 10:00:00
6:05 AM,42.8,37.4,81,30.03,3.0,Calm,Calm,-,N/A,,Clear,0,2012-10-21 10:05:00
6:16 AM,41.0,37.4,87,30.03,1.8,Calm,Calm,-,0.01,,Clear,0,2012-10-21 10:16:00
6:25 AM,39.2,37.4,93,30.03,0.5,Calm,Calm,-,0.01,Fog,Fog,0,2012-10-21 10:25:00
6:38 AM,37.4,33.8,87,30.04,10.0,Calm,Calm,-,0.01,,Clear,0,2012-10-21 10:38:00
6:53 AM,37.9,35.1,89,30.05,10.0,Calm,Calm,-,0.01,,Clear,0,2012-10-21 10:53:00
6:58 AM,39.2,35.6,87,30.04,0.2,Calm,Calm,-,N/A,Fog,Fog,0,2012-10-21 10:58:00
7:53 AM,37.9,35.1,89,30.06,10.0,SSW,3.5,-,N/A,,Clear,200,2012-10-21 11:53:00
8:53 AM,41.0,37.9,89,30.08,10.0,SSW,3.5,-,N/A,,Clear,210,2012-10-21 12:53:00
9:53 AM,48.9,44.1,83,30.09,10.0,SW,5.8,-,N/A,,Mostly Cloudy,220,2012-10-21 13:53:00
10:53 AM,55.0,45.0,69,30.10,10.0,West,4.6,-,N/A,,Clear,270,2012-10-21 14:53:00
11:53 AM,59.0,45.0,60,30.10,10.0,SW,6.9,-,N/A,,Clear,230,2012-10-21 15:53:00
12:53 PM,62.1,41.0,46,30.10,10.0,SW,10.4,-,N/A,,Scattered Clouds,220,2012-10-21 16:53:00
1:53 PM,62.1,39.9,44,30.09,10.0,SSW,12.7,-,N/A,,Partly Cloudy,210,2012-10-21 17:53:00
2:53 PM,63.0,39.9,43,30.07,10.0,South,10.4,-,N/A,,Clear,190,2012-10-21 18:53:00
3:53 PM,64.0,41.0,43,30.06,10.0,South,11.5,18.4,N/A,,Clear,190,2012-10-21 19:53:00
4:53 PM,63.0,41.0,45,30.06,10.0,South,12.7,-,N/A,,Clear,190,2012-10-21 20:53:00
5:53 PM,61.0,39.9,46,30.06,10.0,SW,9.2,-,N/A,,Clear,220,2012-10-21 21:53:00
6:53 PM,55.9,39.9,55,30.09,10.0,SSW,5.8,-,N/A,,Clear,210,2012-10-21 22:53:00
7:53 PM,51.1,39.9,66,30.09,10.0,South,3.5,-,N/A,,Clear,190,2012-10-21 23:53:00
8:53 PM,48.9,39.9,71,30.10,10.0,South,3.5,-,N/A,,Clear,190,2012-10-22 00:53:00
9:53 PM,50.0,39.9,68,30.10,10.0,South,3.5,-,N/A,,Clear,180,2012-10-22 01:53:00
10:53 PM,45.0,39.0,80,30.09,10.0,Calm,Calm,-,N/A,,Clear,0,2012-10-22 02:53:00
11:53 PM,44.1,39.0,82,30.10,10.0,Calm,Calm,-,N/A,,Clear,0,2012-10-22 03:53:00